Tracking 22440 objects as of 26-Feb-2021
HD Live streaming from Space Station
objects crossing your sky now

ARIANE 5 R/B

Track ARIANE 5 R/B now!


NORAD ID: 36746
Int'l Code: 2010-032C
Perigee: 260.1 km
Apogee: 33,485.5 km
Inclination: 1.3 °
Period: 587.8 minutes
Semi major axis: 23243 km
RCS: 22.3476 m2 (large)
Launch date: June 26, 2010
Source: France (FR)
Launch site: FRENCH GUIANA (FRGUI)

Note: This is a ROCKET BODY
aabbcc
Your satellite tracking list
Your tracking list is empty




NASA's NSSDC Master Catalog

Two Line Element Set (TLE):
1 36746U 10032C   21056.80662045  .00002322  00000-0  69436-3 0  9997
2 36746   1.3028 177.4168 7147144 323.7001   4.3415  2.44986637 92816
Source of the keplerian elements: AFSPC